[[{"header":{"parameterUnit":"m.s-1","parameterCategory":1,"la1":30.2992,"la2":30.254,"lo1":-89.0895,"lo2":-89.0443,"dy":0.0025,"dx":0.0025,"nx":19,"ny":19,"refTime":"2026-04-28T21:00:00:Z","depth":0,"parameterNumber":2,"parameterNumberName":"U-component_of_WINDS"},"data":[0,0,0,-2.5882,-2.5883,-2.5904,-2.5904,-2.5945,-2.5945,0,0,0,0,0,0,0,0,0,0,0,-2.5882,-2.5882,-2.5882,-2.5883,-2.5904,-2.5904,-2.5945,-2.5945,0,0,0,0,0,0,0,0,0,0,0,-2.5881,-2.5882,-2.5883,-2.5883,-2.5904,-2.5904,-2.5944,-2.5924,0,0,0,0,0,0,0,0,0,0,-2.5901,-2.5906,-2.5882,-2.5883,-2.5883,-2.5904,-2.5904,-2.5923,-2.5925,-2.594,0,-2.5953,0,-2.595,-2.5948,-2.5949,0,0,0,-2.5878,-2.5904,-2.5904,-2.5883,-2.5883,-2.5904,-2.5893,-2.5924,-2.5927,-2.5943,-2.5953,-2.5955,-2.595,-2.5949,-2.5949,-2.6043,-2.6044,0,0,-2.5877,-2.5889,-2.5902,-2.5906,-2.5902,-2.5893,-2.5894,-2.5926,-2.5938,-2.5953,-2.5955,-2.5951,-2.5949,-2.595,-2.6043,-2.6043,0,0,0,-2.5877,-2.5889,-2.5888,-2.5905,-2.5908,-2.5893,-2.5895,-2.5937,-2.5935,-2.5956,-2.5951,-2.5949,-2.595,-2.6042,-2.6043,-2.6085,0,0,0,-2.5876,-2.5888,-2.5887,-2.5895,-2.5908,-2.5922,-2.5906,-2.5933,-2.5936,-2.5951,-2.5949,-2.5951,-2.6041,-2.6042,-2.6082,-2.6102,0,0,0,-2.5878,-2.5888,-2.5893,-2.5896,-2.5905,-2.5921,-2.5922,-2.5934,-2.5934,-2.5949,-2.5951,-2.6041,-2.6042,-2.608,-2.6098,-2.613,0,0,0,-2.5885,-2.5931,-2.5894,-2.5945,-2.5905,-2.5947,-2.5921,-2.5953,-2.597,-2.595,-2.6041,-2.6043,-2.6079,-2.6096,-2.6127,-2.6158,-2.6172,0,0,-2.595,-2.5939,-2.5968,-2.5936,-2.5987,-2.5943,-2.6001,-2.6007,-2.5998,-2.6029,-2.6031,-2.6083,-2.6098,-2.6129,-2.6248,-2.6259,0,0,0,-2.5993,-2.6014,-2.6025,-2.6041,-2.6046,-2.6052,-2.6048,-2.605,-2.6075,-2.6016,-2.6103,-2.6112,-2.613,-2.6143,-2.6153,-2.6167,-2.605,-2.605,-2.605,-2.6102,-2.6088,-2.6134,-2.6123,-2.614,-2.6135,-2.6147,-2.615,-2.6131,-2.6152,-2.6161,-2.6234,-2.6251,-2.6258,-2.6273,-2.6176,-2.6177,-2.6177,-2.6177,-2.6196,-2.6222,-2.6196,-2.6232,-2.6218,-2.6248,-2.6246,-2.6232,-2.6259,-2.6226,-2.6241,-2.6206,-2.627,-2.6283,-2.618,-2.6179,-2.6179,-2.6179,-2.6179,-2.6264,-2.6275,-2.6276,-2.6299,-2.6318,-2.6306,-2.6333,-2.6319,-2.6307,-2.6322,-2.6329,-2.6328,-2.6325,-2.6327,-2.6327,-2.6327,-2.6327,-2.6327,-2.6328,-2.6335,-2.6335,-2.6358,-2.6368,-2.6377,-2.6387,-2.6383,-2.6392,-2.6399,-2.6387,-2.6387,-2.6366,-2.6279,-2.6257,-2.6331,-2.6331,-2.633,-2.633,-2.633,-2.6433,-2.6408,-2.6445,-2.6454,-2.6464,-2.6484,-2.6467,-2.6486,-2.6492,-2.6506,-2.6483,-2.6421,-2.6409,-2.6402,-2.6383,-2.6486,-2.6486,-2.6486,-2.6486,-2.649,-2.6483,-2.6517,-2.6532,-2.6546,-2.6533,-2.6576,-2.6574,-2.6569,-2.6572,-2.6556,-2.653,-2.6523,-2.6516,-2.6506,-2.6488,-2.6615,-2.6615,-2.6615,-2.655,-2.6543,-2.6581,-2.6574,-2.6581,-2.6588,-2.6628,-2.6648,-2.6637,-2.662,-2.6574,-2.6568,-2.6528,-2.6515,-2.6496,-2.6481,-2.6448,0,0]},{"header":{"parameterUnit":"m.s-1","parameterCategory":1,"la1":30.2992,"la2":30.254,"lo1":-89.0895,"lo2":-89.0443,"dy":0.0025,"dx":0.0025,"nx":19,"ny":19,"refTime":"2026-04-28T21:00:00:Z","depth":0,"parameterNumber":3,"parameterNumberName":"V-component_of_WINDS"},"data":[0,0,0,5.5473,5.5473,5.5483,5.5483,5.5496,5.5496,0,0,0,0,0,0,0,0,0,0,0,5.5472,5.5472,5.5473,5.5473,5.5483,5.5483,5.5496,5.5496,0,0,0,0,0,0,0,0,0,0,0,5.5472,5.5472,5.5472,5.5474,5.5483,5.5483,5.5496,5.5488,0,0,0,0,0,0,0,0,0,0,5.5479,5.5479,5.5472,5.5472,5.5474,5.5483,5.5483,5.5488,5.5488,5.5492,0,5.5497,0,5.5497,5.5497,5.5497,0,0,0,5.5472,5.5478,5.548,5.5472,5.5474,5.5483,5.5478,5.5488,5.5489,5.5493,5.5497,5.5497,5.5497,5.5497,5.5497,5.5528,5.5528,0,0,5.5471,5.5474,5.5479,5.5481,5.548,5.5478,5.5478,5.5489,5.5492,5.5497,5.5498,5.5497,5.5497,5.5497,5.5528,5.5528,0,0,0,5.5471,5.5473,5.5475,5.548,5.5482,5.5478,5.5479,5.5492,5.5492,5.5498,5.5497,5.5497,5.5497,5.5527,5.5528,5.5542,0,0,0,5.5471,5.5473,5.5475,5.5476,5.5482,5.5487,5.5482,5.5491,5.5492,5.5497,5.5497,5.5497,5.5527,5.5528,5.5541,5.5548,0,0,0,5.5471,5.5473,5.5475,5.5476,5.5481,5.5487,5.5488,5.5491,5.5492,5.5497,5.5498,5.5527,5.5528,5.5541,5.5547,5.5559,0,0,0,5.5471,5.5486,5.5476,5.5492,5.5481,5.5496,5.5488,5.5498,5.5504,5.5497,5.5527,5.5528,5.554,5.5546,5.5558,5.5569,5.5574,0,0,5.5491,5.5489,5.5498,5.5489,5.5508,5.5494,5.5515,5.5516,5.5513,5.5523,5.5524,5.5542,5.5547,5.5558,5.56,5.5604,0,0,0,5.5506,5.5513,5.5517,5.5524,5.5527,5.5531,5.553,5.5531,5.554,5.5519,5.5548,5.5551,5.5558,5.5563,5.5567,5.5573,5.553,5.553,5.553,5.5537,5.5535,5.5552,5.5551,5.5558,5.5558,5.5564,5.5565,5.5558,5.5566,5.5568,5.5594,5.56,5.5603,5.5609,5.5574,5.5574,5.5574,5.5574,5.5567,5.5578,5.5572,5.5586,5.5584,5.5595,5.5597,5.5592,5.5602,5.5591,5.5597,5.5585,5.5607,5.5613,5.5575,5.5575,5.5575,5.5574,5.5574,5.5588,5.5593,5.5596,5.5607,5.5616,5.5615,5.5626,5.5622,5.5619,5.5625,5.5628,5.5628,5.5628,5.5627,5.5627,5.5627,5.5627,5.5627,5.5627,5.5609,5.5612,5.5622,5.5629,5.5635,5.5641,5.5643,5.5648,5.5652,5.5648,5.5648,5.5642,5.561,5.5603,5.5628,5.5628,5.5628,5.5628,5.5628,5.5641,5.5634,5.565,5.5656,5.5665,5.5675,5.5672,5.5682,5.5685,5.5691,5.5684,5.5661,5.5657,5.5654,5.5648,5.5684,5.5684,5.5684,5.5684,5.5659,5.5658,5.5675,5.5685,5.5694,5.5693,5.5712,5.5714,5.5715,5.5717,5.5711,5.5702,5.57,5.5698,5.5694,5.5688,5.5734,5.5734,5.5734,5.568,5.5679,5.5696,5.5699,5.5707,5.5713,5.5731,5.5742,5.5741,5.5736,5.5719,5.5717,5.5703,5.5698,5.5692,5.5686,5.5675,0,0]}]]